Wind_Speed
10 9 9 9 8 8 7 7 6 6 6 6 6 6 6 6 6 6 5 5 4 4 4 4 3 3 4 5 5 5 5 5 6 6 6 6 7 8 10 10 9 9 9
9 8 8 7 7 7 6 6 6 5 5 6 6 5 5 5 5 6 5 4 3 3 3 2 2 2 3 4 4 4 3 4 5 5 5 5 6 6 7 8 10 10 9
7 8 6 6 5 5 5 5 5 4 5 5 5 5 4 4 4 4 4 3 3 3 2 1 1 2 3 3 3 4 4 4 4 4 5 5 6 7 7 7 8 8 8
6 6 6 5 4 4 3 3 3 3 3 3 3 3 3 3 3 4 4 3 3 2 1 1 1 1 2 3 3 3 3 4 5 5 6 6 7 7 8 8 8 9 9
6 6 6 5 4 3 3 2 2 2 1 1 2 1 1 2 2 2 3 2 2 1 0 1 1 1 2 3 3 4 5 5 5 6 6 7 7 7 7 8 9 9 10
6 6 5 4 4 3 3 3 2 2 1 1 0 1 1 1 1 0 1 1 0 0 1 2 3 3 3 4 5 5 6 7 7 7 7 7 7 7 7 8 9 9 10
6 6 6 4 4 4 3 3 2 2 2 3 3 2 2 2 2 1 2 2 1 2 3 3 4 5 5 5 6 7 7 7 7 8 8 8 8 8 9 9 10 10 11
7 7 7 5 5 6 6 5 3 4 3 3 3 3 3 3 3 3 3 3 3 4 4 5 6 6 7 8 8 8 8 8 9 9 9 9 10 10 11 10 11 11 12
9 9 8 8 8 7 7 7 5 5 4 4 4 4 4 4 5 5 5 5 5 6 7 7 7 8 9 10 11 11 10 10 10 11 11 11 12 12 12 12 13 13 13
11 11 11 9 8 8 8 8 7 7 7 6 5 5 5 6 7 7 8 8 9 9 9 9 9 10 10 11 11 12 12 12 12 12 13 13 13 13 14 14 15 15 15
13 12 12 11 10 10 10 9 9 8 7 7 7 7 7 8 8 9 10 11 11 11 12 12 12 12 12 13 13 13 13 13 14 14 14 15 15 15 16 16 17 17 18
14 14 13 12 12 12 11 11 10 9 9 9 9 10 10 11 11 12 13 14 14 13 14 14 14 14 14 14 15 15 15 15 15 16 16 17 17 17 17 18 18 19 20
17 16 15 14 14 14 14 14 14 13 12 11 12 12 13 13 14 14 15 16 16 16 15 15 16 16 16 16 17 17 17 18 18 18 18 18 18 19 19 19 20 21 21
19 19 18 17 16 17 16 16 16 15 14 14 15 15 15 15 16 16 16 17 17 17 17 18 17 18 18 19 19 20 20 20 20 20 19 19 19 20 21 22 22 22 22
20 20 19 18 18 17 17 17 17 18 17 17 17 17 18 18 19 18 19 19 18 18 19 19 20 20 20 21 22 22 23 22 22 21 21 22 21 22 23 23 24 24 24
21 20 20 20 19 19 18 18 18 19 19 19 20 20 20 20 21 20 20 21 20 20 21 21 22 23 23 23 24 24 24 24 24 24 24 24 24 24 25 25 25 26 26
22 21 21 21 20 20 20 20 21 21 21 21 21 22 22 22 22 22 22 23 23 23 23 23 24 24 25 25 25 25 25 26 26 26 26 27 27 26 27 27 28 28 28
23 23 22 22 21 21 22 22 23 23 24 24 24 24 24 24 25 26 25 25 26 25 25 25 26 26 26 26 27 28 28 29 29 29 29 29 29 30 30 30 30 31 31
23 23 23 23 23 22 23 23 24 24 25 25 26 26 27 27 27 28 28 27 26 26 25 26 26 27 27 28 29 30 31 31 31 31 31 31 32 32 32 32 32 32 32
24 24 24 24 24 24 23 24 25 25 26 26 27 28 28 28 29 29 29 28 28 28 27 27 28 29 29 30 31 31 32 33 32 32 33 33 33 34 34 35 34 34 34
26 26 25 25 24 24 24 24 24 25 26 27 28 28 29 29 30 30 29 29 29 30 29 30 31 31 31 31 32 33 33 34 34 34 35 35 35 35 36 36 37 37 36
26 26 26 26 26 25 25 25 25 25 26 26 27 27 27 28 29 29 29 29 30 30 30 31 31 31 32 32 33 34 34 35 36 36 37 37 37 37 37 38 38 38 38
26 26 27 26 26 26 26 26 26 26 27 27 28 28 28 28 28 28 28 28 30 31 32 32 32 32 32 33 33 34 35 35 37 37 38 39 39 40 40 40 40 40 40
26 26 26 27 26 26 26 26 27 27 28 28 29 29 29 29 28 28 29 30 31 32 32 33 33 32 33 33 34 35 36 37 38 39 39 39 40 41 41 41 42 42 42
25 26 26 26 26 26 26 27 28 29 29 30 30 30 30 30 29 29 30 31 31 32 33 34 33 33 34 34 35 36 37 38 39 40 40 41 41 41 43 43 42 42 41
25 25 25 25 26 27 27 28 29 30 31 31 31 30 30 30 31 31 31 31 31 32 33 33 33 34 34 34 35 36 37 38 39 39 40 41 42 42 42 42 42 42 41
Wind_Direction
31 34 34 39 43 46 53 62 66 67 69 71 82 90 95 105 113 103 100 99 102 106 120 131 138 171 187 196 206 218 232 237 242 243 248 244 247 250 250 253 250 247 249
24 27 33 33 37 39 45 54 62 66 67 70 81 96 98 103 108 110 107 109 106 108 111 125 156 189 202 210 230 236 238 245 242 245 249 252 254 253 253 254 252 252 258
13 16 20 21 23 30 39 46 56 65 69 69 71 80 95 99 97 109 112 112 112 98 100 116 174 207 212 230 243 243 246 251 249 248 255 261 257 256 256 255 254 255 261
357 1 3 3 12 17 29 42 48 57 67 70 77 82 92 90 88 92 101 107 111 98 90 117 170 230 234 245 259 261 261 258 258 256 259 263 259 259 262 265 259 259 263
339 344 353 349 352 349 350 5 15 25 48 61 63 69 85 99 103 89 92 94 97 110 153 285 285 261 271 273 274 276 271 270 270 267 266 266 266 263 266 265 263 262 264
324 322 329 327 326 321 320 321 332 334 299 275 277 290 288 248 231 150 84 61 84 270 292 292 284 276 284 284 280 281 277 278 276 270 267 265 265 270 276 271 266 263 263
312 313 320 314 301 300 289 292 292 307 272 258 255 258 275 279 265 258 271 292 290 282 281 280 280 280 280 287 285 282 280 280 279 273 270 268 271 275 279 272 267 266 269
306 304 303 299 292 284 286 284 288 307 279 268 271 268 274 271 266 267 271 276 277 280 280 274 271 274 277 284 288 286 284 278 278 273 272 273 274 276 278 276 274 272 273
297 295 295 292 287 279 282 282 286 292 280 268 264 258 268 267 267 272 274 279 279 280 281 282 279 276 278 283 284 285 285 282 279 276 273 274 277 277 276 276 276 276 275
289 291 290 290 287 284 288 285 281 283 277 270 262 256 254 259 270 274 274 276 278 279 279 279 279 279 280 284 284 283 283 284 282 280 279 277 278 277 275 274 275 276 277
287 286 286 287 284 287 284 284 278 274 271 268 265 260 260 263 267 271 273 275 278 279 275 274 276 277 279 282 282 281 282 282 282 281 279 277 277 276 277 276 277 278 279
285 284 282 283 283 284 283 282 273 267 268 268 268 268 266 266 266 268 271 272 272 276 276 274 274 277 280 281 281 280 281 281 281 279 277 276 276 276 276 277 279 279 279
284 283 281 283 285 286 284 283 274 272 270 269 269 269 269 268 266 267 269 271 272 274 277 275 273 273 277 279 280 280 281 281 280 278 277 277 277 278 279 279 280 280 280
282 280 280 281 284 285 280 277 270 270 270 270 271 269 271 271 270 271 273 272 272 272 273 274 273 273 276 278 280 280 280 281 279 277 277 278 279 280 282 282 282 282 282
279 279 278 277 280 280 276 273 271 270 269 270 272 272 273 271 275 276 277 277 272 271 273 274 273 274 276 278 280 280 279 279 278 277 278 278 278 280 282 283 282 282 283
274 273 275 273 272 272 272 272 272 270 271 274 276 274 275 275 274 275 276 277 273 272 273 273 273 273 275 276 279 281 281 280 279 279 279 279 278 279 281 282 282 283 283
270 269 271 271 268 268 271 273 272 273 275 277 278 277 276 275 275 275 277 278 275 272 274 274 274 274 274 276 277 279 279 279 279 279 280 281 281 281 281 281 281 282 282
272 272 273 272 269 270 271 271 272 273 275 277 279 279 277 276 277 278 279 278 276 273 275 275 274 274 274 275 275 275 277 278 279 279 279 280 281 282 282 282 282 281 281
270 271 273 275 272 271 269 270 273 275 276 276 278 278 277 276 277 279 279 278 275 275 277 276 275 276 275 275 276 276 276 277 278 279 280 281 281 282 283 282 282 282 282
268 271 274 274 274 270 271 272 275 277 278 279 280 278 277 277 277 278 278 278 277 276 276 276 276 277 276 275 277 277 278 277 278 279 280 282 283 282 282 282 282 282 283
265 269 273 274 276 276 274 274 275 277 278 280 280 281 280 280 279 279 278 278 277 277 276 276 277 276 276 277 278 278 278 278 278 278 279 281 281 282 281 281 283 283 282
268 268 271 273 274 275 274 275 275 276 278 280 281 281 283 283 280 279 279 278 278 280 278 277 277 276 278 279 280 279 278 278 278 278 279 279 280 281 281 281 282 282 281
270 270 272 273 274 274 275 274 274 276 278 281 282 283 284 282 281 281 280 281 282 282 279 279 278 277 278 280 281 281 280 280 279 279 279 278 279 280 280 281 281 281 281
270 271 273 274 274 274 274 273 273 275 278 281 283 284 283 282 281 282 283 284 285 285 284 282 282 279 278 279 281 282 282 282 280 280 280 280 280 281 280 281 281 281 280
269 270 272 273 272 273 274 275 275 277 279 281 282 283 282 282 282 284 284 284 284 286 286 286 283 282 283 282 282 283 284 283 282 281 281 282 283 283 282 282 282 283 282
268 268 271 272 274 275 276 277 277 279 280 280 280 281 282 282 282 284 285 284 284 286 286 287 286 286 286 286 286 284 284 284 283 282 282 283 283 283 284 283 283 283 281
Height
5891 5889 5887 5886 5885 5884 5883 5882 5881 5880 5879 5878 5878 5877 5877 5877 5877 5877 5877 5878 5879 5879 5880 5880 5881 5882 5883 5883 5884 5885 5885 5886 5887 5887 5887 5888 5888 5888 5888 5888 5887 5888 5888
5891 5890 5888 5887 5886 5885 5884 5883 5882 5881 5881 5880 5879 5879 5878 5878 5878 5878 5879 5880 5880 5881 5881 5881 5882 5882 5883 5883 5884 5884 5885 5885 5886 5886 5886 5886 5887 5886 5886 5886 5886 5886 5886
5892 5891 5889 5888 5886 5886 5885 5884 5883 5882 5882 5881 5881 5880 5879 5879 5880 5880 5880 5880 5881 5881 5882 5882 5882 5883 5883 5883 5884 5884 5884 5884 5884 5885 5885 5885 5885 5885 5884 5884 5884 5884 5884
5892 5890 5889 5888 5887 5886 5885 5885 5884 5883 5883 5882 5882 5882 5882 5882 5881 5881 5881 5881 5882 5882 5882 5883 5883 5883 5883 5883 5883 5883 5884 5883 5883 5884 5884 5884 5883 5883 5883 5883 5882 5882 5882
5891 5890 5888 5888 5887 5886 5886 5885 5884 5883 5883 5883 5883 5883 5883 5883 5882 5882 5882 5883 5883 5883 5883 5883 5883 5883 5883 5883 5883 5883 5883 5883 5882 5882 5882 5882 5882 5881 5881 5881 5880 5880 5880
5891 5889 5888 5887 5886 5885 5885 5885 5884 5883 5883 5883 5883 5883 5883 5883 5883 5883 5883 5883 5883 5883 5883 5883 5882 5882 5882 5882 5882 5882 5882 5882 5881 5881 5881 5880 5880 5880 5879 5879 5878 5878 5878
5890 5889 5887 5887 5886 5885 5884 5884 5883 5883 5882 5882 5882 5882 5883 5883 5883 5883 5883 5883 5883 5883 5882 5882 5882 5882 5881 5881 5881 5881 5881 5880 5879 5879 5878 5878 5878 5878 5877 5877 5876 5876 5875
5888 5887 5886 5885 5885 5884 5883 5883 5882 5882 5882 5882 5882 5882 5882 5882 5882 5882 5882 5882 5882 5882 5882 5881 5881 5880 5880 5880 5880 5879 5878 5878 5877 5876 5876 5876 5875 5875 5874 5874 5873 5873 5873
5886 5885 5884 5884 5883 5882 5882 5881 5881 5881 5881 5881 5881 5881 5881 5881 5881 5881 5881 5881 5881 5881 5880 5880 5879 5879 5879 5878 5878 5877 5876 5875 5875 5874 5874 5873 5872 5871 5871 5871 5870 5870 5869
5884 5883 5882 5881 5881 5880 5879 5879 5879 5879 5879 5879 5879 5879 5879 5879 5880 5880 5880 5879 5879 5879 5878 5878 5878 5877 5877 5876 5875 5874 5873 5873 5872 5871 5871 5870 5869 5868 5867 5867 5866 5866 5866
5881 5880 5879 5879 5878 5878 5877 5877 5876 5876 5877 5877 5877 5878 5877 5877 5878 5878 5877 5877 5877 5876 5876 5875 5875 5874 5874 5873 5872 5871 5870 5869 5868 5867 5867 5866 5865 5864 5863 5863 5862 5861 5861
5878 5877 5876 5876 5875 5875 5874 5874 5873 5873 5874 5874 5875 5875 5875 5875 5875 5875 5874 5874 5873 5873 5873 5872 5872 5871 5870 5869 5868 5868 5866 5865 5864 5863 5862 5862 5861 5860 5859 5858 5857 5856 5856
5874 5873 5872 5872 5872 5872 5871 5871 5870 5870 5871 5871 5872 5872 5872 5871 5871 5871 5870 5869 5869 5869 5869 5868 5867 5867 5866 5865 5864 5863 5862 5861 5860 5859 5858 5857 5856 5855 5854 5853 5852 5851 5850
5869 5868 5868 5868 5868 5868 5867 5867 5867 5867 5867 5868 5868 5868 5868 5867 5867 5865 5865 5865 5864 5864 5864 5863 5863 5862 5862 5861 5860 5859 5858 5856 5855 5854 5853 5851 5850 5850 5848 5848 5846 5845 5844
5864 5863 5863 5863 5863 5863 5863 5863 5863 5864 5863 5864 5864 5863 5863 5863 5862 5861 5860 5860 5859 5858 5858 5858 5857 5857 5856 5855 5854 5853 5852 5851 5849 5848 5847 5846 5845 5844 5843 5842 5841 5839 5838
5858 5858 5858 5858 5858 5858 5859 5859 5859 5859 5858 5858 5858 5858 5858 5857 5856 5855 5855 5854 5853 5853 5852 5852 5851 5851 5850 5849 5848 5847 5846 5845 5844 5842 5841 5839 5838 5837 5836 5835 5834 5833 5831
5852 5853 5853 5853 5853 5853 5853 5853 5854 5853 5853 5853 5852 5852 5851 5851 5850 5849 5848 5848 5847 5846 5846 5845 5844 5844 5843 5842 5841 5840 5839 5838 5837 5836 5834 5833 5832 5830 5829 5828 5826 5825 5823
5846 5846 5846 5846 5846 5846 5846 5846 5847 5847 5847 5847 5846 5845 5844 5844 5843 5842 5841 5840 5840 5839 5838 5838 5837 5836 5835 5834 5833 5832 5831 5830 5829 5828 5827 5825 5824 5822 5821 5819 5818 5816 5815
5839 5839 5839 5839 5839 5839 5839 5840 5840 5840 5839 5839 5838 5838 5837 5837 5836 5835 5834 5833 5832 5831 5830 5830 5829 5828 5827 5826 5825 5823 5822 5821 5821 5820 5818 5817 5815 5814 5812 5811 5809 5807 5805
5832 5832 5832 5832 5832 5832 5832 5833 5833 5833 5832 5831 5831 5830 5829 5829 5828 5827 5826 5825 5824 5823 5822 5821 5820 5820 5819 5818 5816 5815 5813 5812 5812 5811 5809 5807 5806 5805 5802 5801 5799 5797 5796
5825 5825 5825 5825 5825 5825 5826 5826 5826 5825 5825 5824 5823 5822 5821 5820 5820 5819 5817 5816 5815 5814 5813 5812 5811 5810 5810 5809 5807 5805 5804 5803 5802 5800 5799 5798 5796 5794 5792 5790 5789 5788 5786
5818 5818 5818 5818 5818 5818 5818 5818 5818 5818 5817 5816 5815 5814 5813 5812 5810 5809 5808 5807 5806 5805 5803 5802 5801 5800 5799 5798 5797 5795 5794 5792 5791 5790 5788 5787 5785 5783 5781 5779 5778 5776 5774
5810 5811 5811 5811 5811 5810 5810 5810 5810 5810 5809 5808 5807 5806 5804 5803 5802 5800 5799 5798 5796 5796 5794 5792 5791 5790 5789 5788 5786 5785 5783 5781 5780 5778 5777 5775 5773 5771 5770 5768 5766 5764 5762
5803 5803 5803 5803 5803 5802 5802 5802 5802 5802 5801 5800 5798 5797 5796 5794 5793 5792 5790 5789 5787 5786 5785 5783 5781 5780 5779 5778 5776 5774 5772 5770 5768 5767 5765 5763 5761 5759 5758 5756 5754 5752 5750
5795 5795 5795 5795 5795 5794 5794 5794 5794 5793 5792 5791 5790 5788 5787 5786 5785 5783 5782 5780 5778 5776 5775 5773 5772 5770 5769 5767 5765 5763 5761 5759 5757 5755 5752 5751 5749 5747 5745 5744 5741 5739 5738
5787 5787 5787 5787 5787 5787 5786 5786 5785 5784 5784 5782 5781 5780 5778 5777 5776 5775 5773 5771 5770 5768 5765 5764 5762 5760 5758 5756 5755 5752 5750 5747 5745 5743 5741 5739 5737 5735 5732 5730 5728 5726 5724